カタログに戻る

EUTE 7B

EUTE 3D

運用中通信GEO
NORAD 39163·PAYLOAD·🇪🇺 EU

打ち上げ May 14, 2013 から Baikonur Cosmodrome

Loading…

TLE

最新Source: Space-Track

元期: Sep 14, 2026, 13:52 UTC

1 39163U 13022A   26257.57830770  .00000096  00000-0  00000-0 0  9994
2 39163   0.0674 344.4985 0004932 119.1991 114.0513  1.00271678 48848

AllMySatでEUTE 7Bをリアルタイム追跡

Download on the App Store